Weather History for KLKV - May, 2014

Change the Weather History Date:

Friday, May 16, 2014

  Actual Average Record
Temperature  
Mean Temperature 56 °F -  
Max Temperature 75 °F 65 °F 84 °F (2008)
Min Temperature 37 °F 36 °F 24 °F (1999)
Degree Days  
Heating Degree Days 9    
Growing Degree Days 6 (Base 50)    
Moisture  
Dew Point 29 °F    
Average Humidity 38    
Maximum Humidity 81    
Minimum Humidity 15    
Precipitation  
Precipitation 0.00 in - - ()
Sea Level Pressure  
Sea Level Pressure 30.13 in    
Wind  
Wind Speed 8 mph (WSW)    
Max Wind Speed 18 mph    
Max Gust Speed 25 mph    
Visibility 10 miles    
Events      
Averages and records for this station are not official NWS values.
T = Trace of Precipitation, MM = Missing Value Source: NWS Daily Summary

Daily Weather History Graph

Daily Weather History Graph

Search for Another Location

Airport or City:

Trip Planner

Search our weather history database for the weather conditions in past years. The results will help you decide how hot, cold, wet, or windy it might be!

Date:

Astronomy

May. 16, 2014 Rise Set
Actual Time 5:39 AM PDT 8:16 PM PDT
Civil Twilight 5:07 AM PDT 8:49 PM PDT
Nautical Twilight 4:27 AM PDT 9:29 PM PDT
Astronomical Twilight 3:41 AM PDT 10:15 PM PDT
Moon 10:28 PM PDT (5/16) 7:26 AM PDT (5/16)
Length of Visible Light 15h 41m
Length of Day
14h 37m
Waning Gibbous, 95% of the Moon is Illuminated
May 16
Waning Gibbous
May 21
Last Quarter
May 28
New
Jun 5
First Quarter
Jun 12
Full

Hourly Weather History & Observations

Time (PDT) Temp. Windchill Dew Point Humidity Pressure Visibility Wind Dir Wind Speed Gust Speed Precip Events Conditions
12:15 AM 57.2 °F - 28.4 °F 33% 30.22 in 10.0 mi SSE 9.2 mph - N/A   Clear
12:35 AM 55.4 °F - 32.0 °F 41% 30.22 in 10.0 mi SSE 9.2 mph - N/A   Clear
12:55 AM 53.6 °F - 33.8 °F 47% 30.22 in 10.0 mi SE 9.2 mph - N/A   Clear
1:15 AM 53.6 °F - 32.0 °F 44% 30.22 in 10.0 mi SSE 9.2 mph - N/A   Clear
1:35 AM 53.6 °F - 30.2 °F 41% 30.21 in 10.0 mi SW 4.6 mph - N/A   Clear
1:55 AM 51.8 °F - 30.2 °F 44% 30.21 in 10.0 mi Calm Calm - N/A   Clear
2:15 AM 51.8 °F - 30.2 °F 44% 30.20 in 10.0 mi South 5.8 mph - N/A   Clear
2:35 AM 48.2 °F - 28.4 °F 46% 30.20 in 10.0 mi Calm Calm - N/A   Clear
2:55 AM 48.2 °F - 30.2 °F 50% 30.19 in 10.0 mi SSW 4.6 mph - N/A   Clear
3:15 AM 48.2 °F - 28.4 °F 46% 30.19 in 10.0 mi WSW 3.5 mph - N/A   Clear
3:35 AM 46.4 °F 45.2 °F 30.2 °F 53% 30.19 in 10.0 mi SW 3.5 mph - N/A   Clear
3:55 AM 42.8 °F 41.1 °F 30.2 °F 61% 30.18 in 10.0 mi NNW 3.5 mph - N/A   Clear
4:15 AM 41.0 °F - 32.0 °F 70% 30.18 in 10.0 mi Calm Calm - N/A   Clear
4:35 AM 39.2 °F - 33.8 °F 81% 30.18 in 10.0 mi Calm Calm - N/A   Clear
4:55 AM 39.2 °F 34.2 °F 32.0 °F 75% 30.18 in 10.0 mi NNW 6.9 mph - N/A   Clear
5:15 AM 39.2 °F 35.9 °F 32.0 °F 75% 30.17 in 10.0 mi North 4.6 mph - N/A   Clear
5:35 AM 39.2 °F 34.2 °F 32.0 °F 75% 30.17 in 10.0 mi NNW 6.9 mph - N/A   Clear
5:55 AM 39.2 °F 35.9 °F 32.0 °F 75% 30.17 in 10.0 mi North 4.6 mph - N/A   Clear
6:15 AM 37.4 °F 33.8 °F 32.0 °F 81% 30.17 in 10.0 mi NNW 4.6 mph - N/A   Clear
6:35 AM 39.2 °F - 32.0 °F 75% 30.17 in 10.0 mi Calm Calm - N/A   Clear
6:55 AM 42.8 °F - 33.8 °F 70% 30.17 in 10.0 mi Calm Calm - N/A   Clear
7:15 AM 44.6 °F - 35.6 °F 71% 30.18 in 10.0 mi Calm Calm - N/A   Clear
7:35 AM 46.4 °F - 37.4 °F 71% 30.18 in 10.0 mi Calm Calm - N/A   Clear
7:55 AM 48.2 °F - 39.2 °F 71% 30.18 in 10.0 mi Calm Calm - N/A   Clear
8:15 AM 51.8 °F - 37.4 °F 58% 30.17 in 10.0 mi East 3.5 mph - N/A   Clear
8:35 AM 55.4 °F - 35.6 °F 47% 30.17 in 10.0 mi ESE 5.8 mph - N/A   Clear
8:55 AM 55.4 °F - 35.6 °F 47% 30.17 in 10.0 mi ESE 4.6 mph - N/A   Clear
9:15 AM 57.2 °F - 37.4 °F 48% 30.17 in 10.0 mi ESE 4.6 mph - N/A   Clear
9:35 AM 60.8 °F - 37.4 °F 42% 30.17 in 10.0 mi SE 5.8 mph - N/A   Clear
9:55 AM 64.4 °F - 33.8 °F 32% 30.16 in 10.0 mi South 10.4 mph - N/A   Clear
10:15 AM 69.8 °F - 35.6 °F 28% 30.16 in 10.0 mi South 10.4 mph 16.1 mph N/A   Clear
10:35 AM 69.8 °F - 33.8 °F 27% 30.15 in 10.0 mi SSW 12.7 mph 17.3 mph N/A   Clear
10:55 AM 71.6 °F - 33.8 °F 25% 30.15 in 10.0 mi SW 12.7 mph 17.3 mph N/A   Clear
11:15 AM 69.8 °F - 32.0 °F 25% 30.14 in 10.0 mi WSW 13.8 mph - N/A   Clear
11:35 AM 71.6 °F - 32.0 °F 23% 30.13 in 10.0 mi WSW 13.8 mph 18.4 mph N/A   Clear
11:55 AM 73.4 °F - 32.0 °F 22% 30.13 in 10.0 mi SW 13.8 mph 19.6 mph N/A   Clear
12:15 PM 75.2 °F - 30.2 °F 19% 30.13 in 10.0 mi SSW 13.8 mph 20.7 mph N/A   Clear
12:35 PM 73.4 °F - 28.4 °F 19% 30.12 in 10.0 mi SSW 16.1 mph 24.2 mph N/A   Clear
12:55 PM 75.2 °F - 30.2 °F 19% 30.12 in 10.0 mi SSW 12.7 mph 21.9 mph N/A   Clear
1:15 PM 75.2 °F - 30.2 °F 19% 30.12 in 10.0 mi SW 10.4 mph 21.9 mph N/A   Clear
1:35 PM 75.2 °F - 30.2 °F 19% 30.11 in 10.0 mi West 16.1 mph - N/A   Clear
1:55 PM 75.2 °F - 28.4 °F 18% 30.11 in 10.0 mi WSW 11.5 mph 20.7 mph N/A   Clear
2:15 PM 75.2 °F - 26.6 °F 17% 30.10 in 10.0 mi West 17.3 mph 24.2 mph N/A   Clear
2:35 PM 75.2 °F - 26.6 °F 17% 30.10 in 10.0 mi West 17.3 mph 20.7 mph N/A   Clear
2:55 PM 75.2 °F - 28.4 °F 18% 30.10 in 10.0 mi West 18.4 mph 23.0 mph N/A   Clear
3:15 PM 75.2 °F - 28.4 °F 18% 30.10 in 10.0 mi West 16.1 mph 23.0 mph N/A   Clear
3:35 PM 75.2 °F - 26.6 °F 17% 30.09 in 10.0 mi WNW 12.7 mph 21.9 mph N/A   Clear
3:55 PM 75.2 °F - 26.6 °F 17% 30.08 in 10.0 mi South 6.9 mph - N/A   Clear
4:15 PM 75.2 °F - 26.6 °F 17% 30.08 in 10.0 mi WSW 18.4 mph 25.3 mph N/A   Clear
4:35 PM 75.2 °F - 24.8 °F 15% 30.08 in 10.0 mi West 12.7 mph 23.0 mph N/A   Clear
4:55 PM 75.2 °F - 24.8 °F 15% 30.07 in 10.0 mi West 13.8 mph 18.4 mph N/A   Clear
5:15 PM 75.2 °F - 24.8 °F 15% 30.07 in 10.0 mi WSW 12.7 mph 19.6 mph N/A   Clear
5:35 PM 73.4 °F - 24.8 °F 16% 30.07 in 10.0 mi West 16.1 mph 20.7 mph N/A   Clear
5:55 PM 73.4 °F - 23.0 °F 15% 30.06 in 10.0 mi West 15.0 mph - N/A   Clear
6:15 PM 73.4 °F - 23.0 °F 15% 30.06 in 10.0 mi West 10.4 mph 18.4 mph N/A   Clear
6:35 PM 71.6 °F - 23.0 °F 16% 30.06 in 10.0 mi West 13.8 mph 19.6 mph N/A   Clear
6:55 PM 71.6 °F - 24.8 °F 17% 30.06 in 10.0 mi West 12.7 mph - N/A   Clear
7:15 PM 69.8 °F - 24.8 °F 18% 30.06 in 10.0 mi West 10.4 mph - N/A   Clear
7:35 PM 68.0 °F - 24.8 °F 20% 30.07 in 10.0 mi NW 8.1 mph - N/A   Clear
7:55 PM 64.4 °F - 26.6 °F 24% 30.08 in 10.0 mi NW 8.1 mph - N/A   Clear
8:15 PM 60.8 °F - 24.8 °F 25% 30.08 in 10.0 mi NW 6.9 mph - N/A   Clear
8:35 PM 55.4 °F - 26.6 °F 33% 30.08 in 10.0 mi NW 9.2 mph - N/A   Clear
8:55 PM 53.6 °F - 24.8 °F 33% 30.09 in 10.0 mi NW 9.2 mph - N/A   Clear
9:15 PM 51.8 °F - 23.0 °F 33% 30.09 in 10.0 mi NW 9.2 mph - N/A   Clear
9:35 PM 50.0 °F - 23.0 °F 35% 30.10 in 10.0 mi WNW 8.1 mph - N/A   Clear
9:55 PM 48.2 °F - 24.8 °F 40% 30.10 in 10.0 mi NW 10.4 mph - N/A   Clear
10:15 PM 51.8 °F - 21.2 °F 30% 30.10 in 10.0 mi WNW 9.2 mph - N/A   Clear
10:35 PM 48.2 °F - 26.6 °F 43% 30.11 in 10.0 mi ESE 3.5 mph - N/A   Clear
10:55 PM 48.2 °F - 26.6 °F 43% 30.11 in 10.0 mi Calm Calm - N/A   Clear
11:15 PM 44.6 °F 42.2 °F 26.6 °F 49% 30.12 in 10.0 mi East 4.6 mph - N/A   Clear
11:35 PM 46.4 °F 44.3 °F 26.6 °F 46% 30.11 in 10.0 mi East 4.6 mph - N/A   Clear
11:55 PM 44.6 °F - 24.8 °F 46% 30.11 in 10.0 mi Calm Calm - N/A   Clear